• în România
  • Lista ţărilor
  • Pe 7 zile
  • Temperatura apei
  • Hartă satelitară
  • Meteo pe hartă
  • Widget-uri
  • user-avatar
    Intrare

    Meteo pe oră la Luanda

    Astăzi, 25 Mai, Vineri

    Timp Temperatura Precipitaţii Vânt Presiune Umiditate
    00:00 +24°C° 0 mm 2 m/s 754 mmHg 97%
    01:00 +25°C° 0 mm 1 m/s 754 mmHg 92%
    02:00 +25°C° 0 mm 1 m/s 754 mmHg 91%
    03:00 +25°C° 0 mm 2 m/s 754 mmHg 90%
    04:00 +25°C° 0 mm 2 m/s 753 mmHg 89%
    05:00 +25°C° 0 mm 2 m/s 753 mmHg 87%
    06:00 +25°C° 0 mm 2 m/s 754 mmHg 86%
    07:00 +25°C° 0 mm 3 m/s 754 mmHg 85%
    08:00 +26°C° 0 mm 2 m/s 754 mmHg 78%
    09:00 +28°C° 0 mm 2 m/s 754 mmHg 72%
    10:00 +29°C° 0 mm 1 m/s 754 mmHg 65%
    11:00 +31°C° 0 mm 2 m/s 753 mmHg 58%
    12:00 +34°C° 0 mm 2 m/s 753 mmHg 51%
    13:00 +35°C° 0 mm 3 m/s 753 mmHg 45%
    14:00 +34°C° 0 mm 3 m/s 752 mmHg 50%
    15:00 +33°C° 0 mm 4 m/s 752 mmHg 56%
    16:00 +32°C° 0 mm 4 m/s 751 mmHg 61%
    17:00 +29°C° 0 mm 4 m/s 751 mmHg 70%
    18:00 +27°C° 0 mm 4 m/s 752 mmHg 79%
    19:00 +25°C° 0 mm 4 m/s 752 mmHg 88%
    20:00 +24°C° 0 mm 3 m/s 753 mmHg 90%
    21:00 +24°C° 0 mm 3 m/s 753 mmHg 93%
    22:00 +23°C° 0 mm 2 m/s 754 mmHg 95%
    23:00 +23°C° 0 mm 2 m/s 754 mmHg 96%

    Mâine, 26 Mai, Sâmbătă

    Timp Temperatura Precipitaţii Vânt Presiune Umiditate
    00:00 +23°C° 0 mm 1 m/s 754 mmHg 97%
    01:00 +23°C° 0 mm 1 m/s 754 mmHg 97%
    02:00 +23°C° 0 mm 1 m/s 754 mmHg 97%
    03:00 +22°C° 0 mm 1 m/s 754 mmHg 98%
    04:00 +22°C° 0 mm 1 m/s 753 mmHg 98%
    05:00 +21°C° 0 mm 2 m/s 754 mmHg 97%
    06:00 +23°C° 0 mm 2 m/s 754 mmHg 96%
    07:00 +23°C° 0 mm 2 m/s 754 mmHg 96%
    08:00 +25°C° 0 mm 2 m/s 754 mmHg 83%
    09:00 +28°C° 0 mm 2 m/s 755 mmHg 71%
    10:00 +30°C° 0 mm 2 m/s 755 mmHg 58%
    11:00 +32°C° 0 mm 2 m/s 754 mmHg 52%
    12:00 +35°C° 0 mm 2 m/s 753 mmHg 45%
    13:00 +37°C° 0 mm 2 m/s 753 mmHg 38%
    14:00 +35°C° 0 mm 3 m/s 752 mmHg 44%
    15:00 +34°C° 0 mm 4 m/s 752 mmHg 50%
    16:00 +33°C° 0 mm 5 m/s 751 mmHg 56%
    17:00 +30°C° 0 mm 4 m/s 751 mmHg 66%
    18:00 +27°C° 0 mm 4 m/s 752 mmHg 76%
    19:00 +25°C° 0 mm 4 m/s 752 mmHg 86%
    20:00 +25°C° 0 mm 3 m/s 753 mmHg 89%
    21:00 +24°C° 0 mm 2 m/s 754 mmHg 91%
    22:00 +24°C° 0 mm 2 m/s 754 mmHg 94%
    23:00 +23°C° 0 mm 1 m/s 754 mmHg 94%

    Poimâine, 27 Mai, Duminică

    Timp Temperatura Precipitaţii Vânt Presiune Umiditate
    00:00 +23°C° 0 mm 1 m/s 754 mmHg 95%
    01:00 +23°C° 0 mm 1 m/s 754 mmHg 95%
    02:00 +23°C° 0 mm 1 m/s 754 mmHg 96%
    03:00 +23°C° 0 mm 1 m/s 754 mmHg 96%
    04:00 +21°C° 0 mm 2 m/s 754 mmHg 96%
    05:00 +23°C° 0 mm 1 m/s 754 mmHg 94%
    06:00 +23°C° 0 mm 1 m/s 754 mmHg 93%
    07:00 +23°C° 0 mm 1 m/s 755 mmHg 91%
    08:00 +26°C° 0 mm 1 m/s 755 mmHg 80%
    09:00 +28°C° 0 mm 1 m/s 755 mmHg 69%
    10:00 +31°C° 0 mm 1 m/s 755 mmHg 57%
    11:00 +32°C° 0 mm 2 m/s 755 mmHg 52%
    12:00 +35°C° 0 mm 2 m/s 754 mmHg 47%
    13:00 +36°C° 0 mm 3 m/s 754 mmHg 42%
    14:00 +35°C° 0 mm 3 m/s 753 mmHg 48%
    15:00 +34°C° 0 mm 4 m/s 752 mmHg 53%
    16:00 +33°C° 0 mm 5 m/s 752 mmHg 58%
    17:00 +30°C° 0 mm 5 m/s 753 mmHg 68%
    18:00 +28°C° 0 mm 4 m/s 753 mmHg 78%
    19:00 +25°C° 0 mm 4 m/s 754 mmHg 87%
    20:00 +25°C° 0 mm 3 m/s 754 mmHg 90%
    21:00 +24°C° 0 mm 3 m/s 755 mmHg 93%
    22:00 +24°C° 0 mm 2 m/s 755 mmHg 95%
    23:00 +24°C° 0 mm 2 m/s 755 mmHg 96%

    28 Mai, Luni

    Timp Temperatura Precipitaţii Vânt Presiune Umiditate
    00:00 +24°C° 0 mm 1 m/s 755 mmHg 96%
    01:00 +23°C° 0 mm 1 m/s 755 mmHg 96%
    02:00 +23°C° 0 mm 1 m/s 755 mmHg 97%
    03:00 +23°C° 0 mm 1 m/s 755 mmHg 97%
    04:00 +23°C° 0 mm 1 m/s 755 mmHg 97%
    05:00 +23°C° 0 mm 1 m/s 755 mmHg 96%
    06:00 +23°C° 0 mm 1 m/s 756 mmHg 94%
    07:00 +24°C° 0 mm 1 m/s 756 mmHg 93%
    08:00 +26°C° 0 mm 1 m/s 756 mmHg 82%
    09:00 +28°C° 0 mm 1 m/s 756 mmHg 71%
    10:00 +31°C° 0 mm 1 m/s 756 mmHg 60%
    11:00 +32°C° 0 mm 2 m/s 756 mmHg 56%
    12:00 +34°C° 0 mm 2 m/s 755 mmHg 51%
    13:00 +35°C° 0 mm 3 m/s 754 mmHg 47%
    14:00 +34°C° 0 mm 4 m/s 754 mmHg 53%
    15:00 +33°C° 0 mm 4 m/s 753 mmHg 59%
    16:00 +32°C° 0 mm 5 m/s 753 mmHg 64%
    17:00 +29°C° 0 mm 5 m/s 754 mmHg 72%
    18:00 +27°C° 0 mm 4 m/s 754 mmHg 79%
    19:00 +25°C° 0 mm 4 m/s 755 mmHg 86%
    20:00 +25°C° 0 mm 3 m/s 755 mmHg 89%
    21:00 +24°C° 0 mm 3 m/s 756 mmHg 93%
    22:00 +24°C° 0 mm 2 m/s 756 mmHg 96%
    23:00 +23°C° 0 mm 2 m/s 756 mmHg 96%

    29 Mai, Marţi

    Timp Temperatura Precipitaţii Vânt Presiune Umiditate
    00:00 +23°C° 0 mm 1 m/s 756 mmHg 97%
    01:00 +23°C° 0 mm 1 m/s 756 mmHg 97%
    02:00 +23°C° 0 mm 1 m/s 755 mmHg 97%
    03:00 +23°C° 0 mm 1 m/s 755 mmHg 98%
    04:00 +23°C° 0 mm 1 m/s 755 mmHg 98%
    05:00 +23°C° 0 mm 1 m/s 755 mmHg 97%
    06:00 +23°C° 0 mm 1 m/s 755 mmHg 97%
    07:00 +23°C° 0 mm 2 m/s 755 mmHg 96%
    08:00 +25°C° 0 mm 1 m/s 756 mmHg 83%
    09:00 +28°C° 0 mm 1 m/s 756 mmHg 71%
    10:00 +30°C° 0 mm 1 m/s 756 mmHg 58%
    11:00 +32°C° 0 mm 2 m/s 755 mmHg 52%
    12:00 +35°C° 0 mm 2 m/s 754 mmHg 46%
    13:00 +36°C° 0 mm 3 m/s 753 mmHg 39%
    14:00 +35°C° 0 mm 4 m/s 753 mmHg 47%
    15:00 +33°C° 0 mm 4 m/s 752 mmHg 55%
    16:00 +32°C° 0 mm 5 m/s 752 mmHg 63%
    17:00 +29°C° 0 mm 5 m/s 752 mmHg 71%
    18:00 +27°C° 0 mm 4 m/s 753 mmHg 79%
    19:00 +25°C° 0 mm 4 m/s 753 mmHg 88%
    20:00 +24°C° 0 mm 3 m/s 754 mmHg 90%
    21:00 +24°C° 0 mm 2 m/s 754 mmHg 93%
    22:00 +23°C° 0 mm 1 m/s 754 mmHg 95%
    23:00 +23°C° 0 mm 1 m/s 754 mmHg 96%

    30 Mai, Miercuri

    Timp Temperatura Precipitaţii Vânt Presiune Umiditate
    00:00 +23°C° 0 mm 1 m/s 754 mmHg 97%
    01:00 +23°C° 0 mm 1 m/s 754 mmHg 97%
    02:00 +23°C° 0 mm 1 m/s 754 mmHg 97%
    03:00 +22°C° 0 mm 1 m/s 754 mmHg 98%
    04:00 +22°C° 0 mm 1 m/s 754 mmHg 98%
    05:00 +22°C° 0 mm 1 m/s 754 mmHg 97%
    06:00 +23°C° 0 mm 1 m/s 754 mmHg 96%
    07:00 +23°C° 0 mm 1 m/s 754 mmHg 95%
    08:00 +26°C° 0 mm 1 m/s 755 mmHg 82%
    09:00 +28°C° 0 mm 1 m/s 755 mmHg 69%
    10:00 +31°C° 0 mm 1 m/s 755 mmHg 57%
    11:00 +32°C° 0 mm 2 m/s 754 mmHg 52%
    12:00 +34°C° 0 mm 2 m/s 754 mmHg 47%
    13:00 +36°C° 0 mm 3 m/s 753 mmHg 42%
    14:00 +34°C° 0 mm 4 m/s 753 mmHg 50%
    15:00 +32°C° 0 mm 4 m/s 752 mmHg 58%
    16:00 +30°C° 0 mm 5 m/s 752 mmHg 66%
    17:00 +28°C° 0 mm 4 m/s 752 mmHg 74%
    18:00 +26°C° 0 mm 4 m/s 753 mmHg 82%
    19:00 +24°C° 0 mm 3 m/s 753 mmHg 90%
    20:00 +24°C° 0 mm 3 m/s 754 mmHg 92%
    21:00 +23°C° 0 mm 2 m/s 754 mmHg 94%
    22:00 +23°C° 0 mm 2 m/s 755 mmHg 96%
    23:00 +23°C° 0 mm 2 m/s 755 mmHg 97%
    Arată mai mult